This is the latest recevied weather packets stored in our database for station/object SR6WXJG. If no packets are shown the sender has not sent any weather packets the latest 1 day(s).
| Time | Temp. | Humidity | Pressure | Rain* | Wind** | Luminosity | Snow |
|---|---|---|---|---|---|---|---|
| 1778043971 | 12.78° C | 90% | 1007 hPa | 0 mm | - | - | - |
| 1778043070 | 12.78° C | 91% | 1006 hPa | 0 mm | - | - | - |
| 1778042170 | 12.78° C | 91% | 1006 hPa | 0 mm | - | - | - |
| 1778040369 | 11.67° C | 93% | 1006 hPa | 0 mm | - | - | - |
| 1778039469 | 12.22° C | 92% | 1006 hPa | 0 mm | - | - | - |
| 1778038568 | 12.22° C | 92% | 1006 hPa | 0 mm | - | - | - |
| 1778037668 | 11.67° C | 93% | 1006 hPa | 0 mm | - | - | - |
| 1778036768 | 12.22° C | 92% | 1006 hPa | 0 mm | - | - | - |
| 1778035867 | 12.22° C | 92% | 1006 hPa | 0 mm | - | - | - |
| 1778034967 | 12.22° C | 92% | 1006 hPa | 0 mm | - | - | - |
| 1778033166 | 12.78° C | 92% | 1006 hPa | 0 mm | - | - | - |
| 1778032266 | 12.78° C | 93% | 1005 hPa | 0 mm | - | - | - |
| 1778031365 | 12.78° C | 93% | 1005 hPa | 0 mm | - | - | - |
| 1778030465 | 13.33° C | 91% | 1006 hPa | 0 mm | - | - | - |
| 1778028664 | 13.33° C | 91% | 1006 hPa | 0 mm | - | - | - |
| 1778027764 | 13.33° C | 91% | 1006 hPa | 0 mm | - | - | - |
| 1778025963 | 13.89° C | 91% | 1006 hPa | 0 mm | - | - | - |
| 1778023262 | 13.89° C | 86% | 1006 hPa | 0 mm | - | - | - |
| 1778020561 | 14.44° C | 89% | 1006 hPa | 0 mm | - | - | - |
| 1778018760 | 15° C | 83% | 1006 hPa | 0 mm | - | - | - |
| 1778016059 | 15.56° C | 81% | 1006 hPa | 0 mm | - | - | - |
| 1778011557 | 16.67° C | 68% | 1005 hPa | 0 mm | - | - | - |
| 1778007955 | 18.33° C | 74% | 1004 hPa | 0 mm | - | - | - |
* Rain latest hour (hover to see other rain measurements)
** Current wind speed in m/s (hover to see current wind gust speed)